Elmendorf AFB, AK

12:06 PM AKDT on March 30, 2017 (GMT -0800)
Elmendorf Air Force Base

Weather History for PAED - October, 2012

Change the Weather History Date:

Thursday, October 11, 2012

  Actual Average Record
Temperature  
Mean Temperature 37 °F -  
Max Temperature 46 °F 40 °F 53 °F (1998)
Min Temperature 28 °F 30 °F 3 °F (1969)
Degree Days  
Heating Degree Days 28    
Moisture  
Dew Point 24 °F    
Average Humidity 61    
Maximum Humidity 93    
Minimum Humidity 40    
Precipitation  
Precipitation 0.00 in - - ()
Sea Level Pressure  
Sea Level Pressure 29.77 in    
Wind  
Wind Speed 6 mph (NNE)    
Max Wind Speed 9 mph    
Max Gust Speed -    
Visibility 10 miles    
Events      
Averages and records for this station are not official NWS values.
T = Trace of Precipitation, MM = Missing Value Source: NWS Daily Summary

Daily Weather History Graph

Daily Weather History Graph

Search for Another Location

Airport or City:

Trip Planner

Search our weather history database for the weather conditions in past years. The results will help you decide how hot, cold, wet, or windy it might be!

Date:

Astronomy

Oct. 11, 2012 Rise Set
Actual Time 8:32 AM AKDT 6:57 PM AKDT
Civil Twilight 7:49 AM AKDT 7:40 PM AKDT
Nautical Twilight 6:59 AM AKDT 8:30 PM AKDT
Astronomical Twilight 6:07 AM AKDT 9:21 PM AKDT
Moon 3:20 AM AKDT (10/11) 5:29 PM AKDT (10/11)
Length of Visible Light 11h 51m
Length of Day
10h 24m
Waning Crescent, 17% of the Moon is Illuminated
Oct 11
Waning Crescent
Oct 15
New
Oct 21
First Quarter
Oct 29
Full
Nov 6
Last Quarter

Hourly Weather History & Observations

Time (AKDT) Temp. Windchill Dew Point Humidity Pressure Visibility Wind Dir Wind Speed Gust Speed Precip Events Conditions
12:55 AM 39.2 °F 33.0 °F 26.4 °F 60% 29.93 in 10.0 mi NNE 9.2 mph - N/A   Clear
1:55 AM 38.1 °F 32.3 °F 26.8 °F 64% 29.93 in 10.0 mi North 8.1 mph - N/A   Clear
2:55 AM 37.6 °F 31.6 °F 26.2 °F 64% 29.91 in 10.0 mi North 8.1 mph - N/A   Clear
3:55 AM 37.8 °F 32.5 °F 25.0 °F 60% 29.89 in 10.0 mi NNE 6.9 mph - N/A   Clear
4:55 AM 35.2 °F 31.2 °F 25.3 °F 67% 29.88 in 10.0 mi SE 4.6 mph - N/A   Clear
5:55 AM 34.7 °F 30.6 °F 25.0 °F 68% 29.86 in 10.0 mi East 4.6 mph - N/A   Clear
6:55 AM 30.6 °F - 25.7 °F 82% 29.84 in 10.0 mi Calm Calm - N/A   Clear
7:55 AM 29.3 °F - 25.5 °F 86% 29.83 in 10.0 mi Calm Calm - N/A   Clear
8:04 AM 28.4 °F - 26.6 °F 93% 29.85 in 10.0 mi Calm Calm - N/A   Partly Cloudy
8:55 AM 30.2 °F - 26.1 °F 85% 29.82 in 10.0 mi Calm Calm - N/A   Clear
9:55 AM 34.5 °F 30.4 °F 26.6 °F 73% 29.81 in 10.0 mi North 4.6 mph - N/A   Scattered Clouds
9:58 AM 35.6 °F 29.9 °F 24.8 °F 65% 29.83 in 10.0 mi North 6.9 mph - N/A   Scattered Clouds
10:55 AM 39.0 °F 34.0 °F 22.8 °F 52% 29.80 in 10.0 mi NNE 6.9 mph - N/A   Clear
10:57 AM 39.2 °F 34.2 °F 23.0 °F 52% 29.82 in 10.0 mi North 6.9 mph - N/A   Scattered Clouds
11:55 AM 41.2 °F 37.3 °F 22.6 °F 48% 29.79 in 10.0 mi Variable 5.8 mph - N/A   Clear
12:55 PM 43.5 °F 40.1 °F 22.1 °F 43% 29.78 in 10.0 mi North 5.8 mph - N/A   Clear
12:57 PM 42.8 °F 40.1 °F 23.0 °F 46% 29.80 in 10.0 mi North 4.6 mph - N/A   Scattered Clouds
1:55 PM 45.9 °F 42.3 °F 22.6 °F 40% 29.75 in 10.0 mi North 6.9 mph - N/A   Partly Cloudy
2:55 PM 45.5 °F 41.3 °F 23.9 °F 43% 29.74 in 10.0 mi North 8.1 mph - N/A   Clear
3:55 PM 45.9 °F 41.7 °F 23.5 °F 41% 29.71 in 10.0 mi North 8.1 mph - N/A   Clear
4:55 PM 46.2 °F 42.7 °F 23.4 °F 41% 29.69 in 10.0 mi NNE 6.9 mph - N/A   Scattered Clouds
5:55 PM 43.3 °F 38.1 °F 24.4 °F 47% 29.66 in 10.0 mi NNE 9.2 mph - N/A   Clear
6:55 PM 40.6 °F 37.5 °F 24.1 °F 52% 29.65 in 10.0 mi North 4.6 mph - N/A   Clear
7:55 PM 39.4 °F 33.8 °F 24.1 °F 54% 29.62 in 10.0 mi NNE 8.1 mph - N/A   Clear
8:55 PM 38.3 °F 33.9 °F 22.1 °F 52% 29.61 in 10.0 mi NNE 5.8 mph - N/A   Clear
9:55 PM 32.7 °F 29.6 °F 24.6 °F 72% 29.59 in 10.0 mi ENE 3.5 mph - N/A   Clear
10:55 PM 30.7 °F - 25.2 °F 80% 29.57 in 10.0 mi Calm Calm - N/A   Clear
11:55 PM 31.3 °F 27.9 °F 24.1 °F 75% 29.55 in 10.0 mi NE 3.5 mph - N/A   Clear